Regional Weather Roundup
Issued by NWS

Home | Current Version | Previous Version | Text Only | Print | Product List | Glossary Off
Versions: 1 2 3 4 5 6 7 8 9 10 11 12 13 14 15 16 17 18 19 20 21 22 23 24 25 26 27 28 29 30 31 32 33 34 35 36 37 38 39 40 41 42 43 44 45 46 47 48 49 50

000
ASUS43 KBIS 021202
RWRND

NORTH DAKOTA REGIONAL WEATHER ROUNDUP
NATIONAL WEATHER SERVICE BISMARCK ND
700 AM CDT THU JUL 02 2015

NOTE: "FAIR" INDICATES FEW OR NO CLOUDS BELOW 12,000 FEET WITH NO
SIGNIFICANT WEATHER AND/OR OBSTRUCTIONS TO VISIBILITY.


NDZ001>003-009>011-017-021300-
NORTHWEST NORTH DAKOTA

CITY           SKY/WX    TMP DP  RH WIND       PRES   REMARKS
WILLISTON      CLEAR     56  53  90 W3        30.02R
6HR MIN TEMP:  54; 6HR MAX TEMP:  66;

MINOT          PTCLDY    63  60  90 W6        29.96R FOG
MINOT AFB      CLEAR     61  61 100 W6        29.96R FOG
$$

NDZ018>021-031>035-040>046-021300-
SOUTHWEST NORTH DAKOTA

CITY           SKY/WX    TMP DP  RH WIND       PRES   REMARKS
BISMARCK       MOCLDY    62  61  96 CALM      29.97S FOG
6HR MIN TEMP:  62; 6HR MAX TEMP:  68; 6HR PCP:  0.56;

DICKINSON      CLEAR     58  56  93 W6        30.02R FOG
GARRISON         N/A     60  60 100 NW6       29.98R
6HR MIN TEMP:  59; 6HR MAX TEMP:  68; 6HR PCP:  0.07;

HETTINGER ARPT PTCLDY    57  55  93 W6        30.04S FOG
$$

NDZ004>008-012>016-024-026-027-054-021300-
NORTHEAST NORTH DAKOTA

CITY           SKY/WX    TMP DP  RH WIND       PRES   REMARKS
GRAND FORKS    MOSUNNY   58  56  93 S8        29.96R
GRND FRKS AFB  SUNNY     59  57  91 S6        29.96R
DEVILS LAKE    CLOUDY    66  61  82 S3        29.94R
$$

NDZ022-023-025-028>030-036>039-047>053-021300-
SOUTHEAST NORTH DAKOTA

CITY           SKY/WX    TMP DP  RH WIND       PRES   REMARKS
FARGO          SUNNY     60  54  80 S9        29.98S
6HR MIN TEMP:  59; 6HR MAX TEMP:  64;

JAMESTOWN      CLOUDY    63  60  90 S5        29.96R
$$



USA.gov is the U.S. government's official web portal to all federal, state and local government web resources and services.